Terug naar catalogus

STARLINK-31765

ActiefCommunicatieVLEO
NORAD 59604·PAYLOAD·🇺🇸 United States

Gelanceerd Apr 28, 2024 vanaf Cape Canaveral Space Force Station

Loading…

Volgende Passages (komende 24 uur)

TLE

VersSource: CelesTrak SupGP

Epoch: Sep 14, 2026, 22:12 UTC

1 59604C 24080D   26257.92548611  .00047605  00000+0  17243-2 0  2573
2 59604  43.0025  45.6499 0001318 276.9069 129.8478 15.27554246    10

Volg STARLINK-31765 in realtime met AllMySat

Download on the App Store